Weather History for Midland, MI

Change the Weather History Date:

Friday, October 5, 2012

  Actual Average (KMBS) Record (KMBS)
Temperature  
Mean Temperature 52 °F 54 °F  
Max Temperature 60 °F 64 °F 86 °F (2005)
Min Temperature 43 °F 43 °F 26 °F (2004)
Degree Days  
Heating Degree Days 14    
Month to date heating degree days  
Since 1 July heating degree days  
Cooling Degree Days 0    
Month to date cooling degree days  
Year to date cooling degree days  
Growing Degree Days 2 (Base 50)    
Moisture  
Dew Point 39 °F    
Average Humidity 62    
Maximum Humidity 81    
Minimum Humidity 39    
Precipitation  
Precipitation 0.00 in 0.09 in 0.28 in (2013)
Month to date precipitation 0.49  
Year to date precipitation 24.84  
Snow  
Snow 0.00 in - - ()
Month to date snowfall  
Since 1 July snowfall  
Since 1 September snowfall  
Snow Depth -    
Sea Level Pressure  
Sea Level Pressure 29.97 in    
Wind  
Wind Speed 10 mph (WSW)    
Max Wind Speed 16 mph    
Max Gust Speed 24 mph    
Visibility 10 miles    
Events      
T = Trace of Precipitation, MM = Missing Value Source: NWS Daily Summary

Daily Weather History Graph

Daily Weather History Graph

Search for Another Location

Airport:

Trip Planner

Search our weather history database for the weather conditions in past years. The results will help you decide how hot, cold, wet, or windy it might be!

Date:

Astronomy

Oct. 05, 2012 Rise Set
Actual Time 7:39 AM EDT 7:10 PM EDT
Civil Twilight 7:11 AM EDT 7:38 PM EDT
Nautical Twilight 6:37 AM EDT 8:11 PM EDT
Astronomical Twilight 6:04 AM EDT 8:45 PM EDT
Moon 10:23 PM EDT (10/5) 12:55 PM EDT (10/5)
Length of Visible Light 12h 27m
Length of Day
11h 30m
Waning Gibbous, 74% of the Moon is Illuminated
Oct 5
Waning Gibbous
Oct 8
Last Quarter
Oct 15
New
Oct 21
First Quarter
Oct 29
Full

Hourly Weather History & Observations

Time (EDT) Temp. Windchill Dew Point Humidity Pressure Visibility Wind Dir Wind Speed Gust Speed Precip Events Conditions
12:14 AM 60.8 °F - 52.9 °F 75% 29.96 in 10.0 mi WSW 9.2 mph - N/A   Mostly Cloudy
12:34 AM 60.3 °F - 50.9 °F 71% 29.95 in 10.0 mi WSW 12.7 mph 17.3 mph N/A   Mostly Cloudy
12:53 AM 59.4 °F - 50.0 °F 71% 29.96 in 10.0 mi WSW 11.5 mph - N/A   Overcast
1:13 AM 59.2 °F - 49.1 °F 69% 29.97 in 10.0 mi WSW 8.1 mph - N/A   Overcast
1:34 AM 58.6 °F - 48.2 °F 68% 29.97 in 10.0 mi WSW 10.4 mph - N/A   Overcast
1:53 AM 58.3 °F - 48.2 °F 69% 29.97 in 10.0 mi WSW 10.4 mph - N/A   Overcast
2:14 AM 58.1 °F - 48.2 °F 70% 29.98 in 10.0 mi WSW 9.2 mph - N/A   Overcast
2:34 AM 58.1 °F - 47.8 °F 69% 29.98 in 10.0 mi West 6.9 mph - N/A   Overcast
2:53 AM 57.2 °F - 46.8 °F 68% 29.98 in 10.0 mi West 10.4 mph 21.9 mph N/A   Overcast
3:14 AM 55.6 °F - 45.9 °F 70% 29.98 in 10.0 mi West 12.7 mph - N/A   Scattered Clouds
3:34 AM 54.1 °F - 43.3 °F 67% 29.98 in 10.0 mi West 12.7 mph 17.3 mph N/A   Clear
3:53 AM 53.2 °F - 41.9 °F 65% 29.98 in 10.0 mi West 12.7 mph 17.3 mph N/A   Clear
4:14 AM 52.0 °F - 41.4 °F 67% 29.98 in 10.0 mi West 6.9 mph - N/A   Clear
4:34 AM 50.5 °F - 41.0 °F 70% 30.00 in 10.0 mi West 8.1 mph - N/A   Clear
4:53 AM 50.0 °F - 39.9 °F 68% 30.00 in 10.0 mi West 10.4 mph - N/A   Clear
5:14 AM 49.5 °F - 38.7 °F 66% 30.02 in 10.0 mi West 9.2 mph 16.1 mph N/A   Clear
5:33 AM 48.6 °F - 38.3 °F 68% 30.01 in 10.0 mi West 6.9 mph - N/A   Clear
5:54 AM 47.5 °F - 38.7 °F 71% 30.02 in 10.0 mi West 6.9 mph - N/A   Clear
6:14 AM 46.6 °F - 39.0 °F 75% 30.02 in 10.0 mi West 8.1 mph - N/A   Clear
6:33 AM 46.4 °F 42.4 °F 39.2 °F 76% 30.02 in 10.0 mi WSW 8.1 mph - N/A   Clear
6:54 AM 46.4 °F 42.9 °F 38.7 °F 74% 30.02 in 10.0 mi West 6.9 mph - N/A   Clear
7:14 AM 45.7 °F 42.0 °F 38.3 °F 75% 30.03 in 10.0 mi WSW 6.9 mph - N/A   Clear
7:33 AM 45.5 °F 41.8 °F 38.3 °F 76% 30.02 in 10.0 mi West 6.9 mph - N/A   Clear
7:54 AM 44.6 °F 41.4 °F 37.9 °F 77% 30.02 in 10.0 mi WSW 5.8 mph - N/A   Clear
8:08 AM 43.9 °F 41.3 °F 37.9 °F 80% 30.03 in 10.0 mi WSW 4.6 mph - N/A   Clear
8:33 AM 43.9 °F 41.3 °F 38.5 °F 81% 30.03 in 10.0 mi SW 4.6 mph - N/A   Clear
8:54 AM 45.5 °F 42.5 °F 38.7 °F 77% 30.03 in 10.0 mi WSW 5.8 mph - N/A   Clear
9:13 AM 45.7 °F 43.4 °F 39.0 °F 78% 30.04 in 10.0 mi SW 4.6 mph - N/A   Clear
9:34 AM 46.4 °F 42.4 °F 39.7 °F 78% 30.04 in 10.0 mi SW 8.1 mph - N/A   Clear
9:54 AM 47.8 °F - 39.6 °F 73% 30.03 in 10.0 mi SW 9.2 mph - N/A   Clear
10:13 AM 48.9 °F - 39.6 °F 70% 30.03 in 10.0 mi SW 11.5 mph 18.4 mph N/A   Scattered Clouds
10:34 AM 49.6 °F - 38.1 °F 65% 30.03 in 10.0 mi WSW 12.7 mph 17.3 mph N/A   Mostly Cloudy
10:54 AM 50.7 °F - 39.0 °F 64% 30.03 in 10.0 mi WSW 9.2 mph 16.1 mph N/A   Scattered Clouds
11:14 AM 51.3 °F - 38.3 °F 61% 30.02 in 10.0 mi West 9.2 mph 19.6 mph N/A   Scattered Clouds
11:34 AM 52.7 °F - 37.6 °F 56% 30.01 in 10.0 mi West 12.7 mph 17.3 mph N/A   Clear
11:53 AM 53.8 °F - 37.6 °F 54% 30.01 in 10.0 mi West 13.8 mph 19.6 mph N/A   Clear
12:14 PM 54.7 °F - 37.6 °F 53% 30.01 in 10.0 mi SW 15.0 mph 20.7 mph N/A   Clear
12:34 PM 54.7 °F - 37.2 °F 52% 30.01 in 10.0 mi West 11.5 mph 21.9 mph N/A   Clear
12:53 PM 55.4 °F - 36.7 °F 49% 30.00 in 10.0 mi West 9.2 mph - N/A   Scattered Clouds
1:14 PM 56.1 °F - 36.9 °F 48% 30.00 in 10.0 mi WSW 13.8 mph 19.6 mph N/A   Scattered Clouds
1:34 PM 56.7 °F - 35.6 °F 45% 29.98 in 10.0 mi SW 12.7 mph 21.9 mph N/A   Clear
1:53 PM 56.7 °F - 36.5 °F 47% 29.97 in 10.0 mi WSW 10.4 mph 17.3 mph N/A   Clear
2:34 PM 58.1 °F - 34.3 °F 41% 29.96 in 10.0 mi WSW 15.0 mph 24.2 mph N/A   Clear
2:54 PM 58.8 °F - 34.3 °F 40% 29.96 in 10.0 mi WSW 15.0 mph 23.0 mph N/A   Clear
3:14 PM 59.4 °F - 34.0 °F 39% 29.95 in 10.0 mi WSW 15.0 mph 18.4 mph N/A   Clear
3:33 PM 58.1 °F - 32.9 °F 39% 29.95 in 10.0 mi WSW 16.1 mph 21.9 mph N/A   Clear
3:54 PM 57.4 °F - 32.2 °F 39% 29.94 in 10.0 mi West 13.8 mph 19.6 mph N/A   Clear
4:14 PM 57.2 °F - 32.5 °F 39% 29.94 in 10.0 mi West 10.4 mph - N/A   Clear
4:34 PM 56.3 °F - 32.0 °F 40% 29.93 in 10.0 mi WSW 13.8 mph - N/A   Clear
4:54 PM 55.8 °F - 32.0 °F 41% 29.93 in 10.0 mi West 12.7 mph 18.4 mph N/A   Clear
5:14 PM 54.9 °F - 33.1 °F 44% 29.92 in 10.0 mi WSW 11.5 mph 17.3 mph N/A   Scattered Clouds
5:34 PM 54.5 °F - 34.0 °F 46% 29.92 in 10.0 mi WSW 9.2 mph - N/A   Mostly Cloudy
5:54 PM 53.8 °F - 35.2 °F 50% 29.92 in 10.0 mi WSW 9.2 mph - N/A   Overcast
6:14 PM 53.2 °F - 35.8 °F 52% 29.94 in 10.0 mi WSW 13.8 mph 18.4 mph N/A   Overcast
6:34 PM 52.3 °F - 36.0 °F 54% 29.93 in 10.0 mi WSW 11.5 mph 17.3 mph N/A   Mostly Cloudy
6:54 PM 51.4 °F - 36.3 °F 56% 29.95 in 10.0 mi WSW 6.9 mph - N/A   Overcast
7:13 PM 51.4 °F - 36.1 °F 56% 29.95 in 10.0 mi WSW 11.5 mph 16.1 mph N/A   Overcast
7:34 PM 50.4 °F - 35.6 °F 57% 29.94 in 10.0 mi West 9.2 mph - N/A   Overcast
7:53 PM 50.0 °F - 35.2 °F 57% 29.94 in 10.0 mi WSW 10.4 mph 17.3 mph N/A   Overcast
8:14 PM 49.6 °F - 36.0 °F 59% 29.94 in 10.0 mi WSW 11.5 mph - N/A   Overcast
8:34 PM 49.5 °F - 36.3 °F 61% 29.94 in 10.0 mi WSW 9.2 mph - N/A   Overcast
8:54 PM 49.3 °F - 36.5 °F 61% 29.94 in 10.0 mi WSW 9.2 mph - N/A   Overcast
9:14 PM 49.1 °F - 37.0 °F 63% 29.94 in 10.0 mi WSW 6.9 mph - N/A   Overcast
9:34 PM 48.4 °F - 37.4 °F 66% 29.93 in 10.0 mi SW 4.6 mph - N/A   Overcast
9:54 PM 48.2 °F - 37.8 °F 67% 29.93 in 10.0 mi SW 4.6 mph - N/A   Overcast
10:14 PM 48.0 °F - 37.9 °F 68% 29.92 in 10.0 mi SW 6.9 mph - N/A   Overcast
10:34 PM 47.8 °F - 38.3 °F 70% 29.92 in 10.0 mi WSW 4.6 mph - N/A   Overcast
10:54 PM 47.8 °F - 37.9 °F 69% 29.92 in 10.0 mi WSW 5.8 mph - N/A   Mostly Cloudy
11:14 PM 47.7 °F - 37.6 °F 68% 29.91 in 10.0 mi WSW 5.8 mph - N/A   Scattered Clouds
11:34 PM 47.8 °F - 37.0 °F 66% 29.91 in 10.0 mi WSW 5.8 mph - N/A   Mostly Cloudy
11:54 PM 47.8 °F - 36.5 °F 65% 29.91 in 10.0 mi WSW 5.8 mph - N/A   Mostly Cloudy